Regional Weather Roundup
Issued by NWS

Home | Current Version | Previous Version | Text Only | Print | Product List | Glossary Off
Versions: 1 2 3 4 5 6 7 8 9 10 11 12 13 14 15 16 17 18 19 20 21 22 23 24 25 26 27 28 29 30 31 32 33 34 35 36 37 38 39 40 41 42 43 44 45 46 47 48 49 50

000
ASUS45 KSLC 021910
RWRUT

UTAH REGIONAL WEATHER ROUNDUP
NATIONAL WEATHER SERVICE SALT LAKE CITY UT
1200 PM MST MON MAR 02 2015

UTZ001>011-023>025-022000-

NORTHERN UTAH

CITY           SKY/WX    TMP DP  RH WIND       PRES   REMARKS
BRIGHAM CITY   CLOUDY    41  28  58 NW3       29.72F
HILL AFB       PTSUNNY   39  28  65 E17G24    29.69F WCI  29
LOGAN          CLOUDY    39  23  52 NE3       29.73F
OGDEN          CLOUDY    40  31  70 VRB3      29.70F
PROVO AIRPORT  NOT AVBL
SALT LAKE CITY CLOUDY    40  35  83 SE8       29.70F WCI  34
VERNAL         LGT SNOW  34  32  92 NW3       29.73F FOG
WENDOVER       CLOUDY    37  27  65 CALM      29.73F
HEBER CITY     LGT SNOW  32  32 100 CALM      29.72F
WEST JORDAN    CLOUDY    36  36 100 SE5       29.71F WCI  32

$$

UTZ012>022-026-027-022000-

SOUTHERN/CENTRAL UTAH

CITY           SKY/WX    TMP DP  RH WIND       PRES   REMARKS
BLANDING       CLOUDY    40  36  87 S7        29.88F WCI  35
BRYCE CANYON   LGT SNOW  30  29  96 SW7       29.77S FOG     WCI  23
CEDAR CITY     LGT SNOW  33  32  96 SW13      29.74S FOG     WCI  24
DELTA          CLOUDY    37  37  98 S10       29.72F WCI  30
HANKSVILLE     CLOUDY    34  34 100 W3        29.76F
MILFORD        CLOUDY    36  32  85 S14       29.71F WCI  27
MOAB/CYNLANDS  CLOUDY    51  43  74 SE10      29.68F
PRICE          LGT SNOW  35  32  88 CALM      29.72F VSB 1
ST GEORGE      CLOUDY    45  37  76 SE3       29.84R

$$

REGIONAL REPORTS     COLORADO/ARIZONA

CITY           SKY/WX    TMP DP  RH WIND       PRES   REMARKS
CRAIG, CO      CLOUDY    39  34  82 E7        29.76F WCI  34
GRAND JUNCTION PTSUNNY   52  38  58 SE10G25   29.71F
RIFLE          LGT RAIN  37  35  92 CALM      29.78F
MONTROSE       NOT AVBL
CORTEZ         CLOUDY    49  31  49 SE18G29   29.84F
PAGE, AZ       NOT AVBL
GRAND CANYON   SNOW      32  31  96 W8        29.84F VSB 1/2 WCI  25
KINGMAN        LGT RAIN  45  41  86 SW17G24   29.87R
FLAGSTAFF      HVY SNOW  31  29  92 SW9       29.84F VSB 1/4 WCI  23

$$

REGIONAL REPORTS    NEVADA/IDAHO/WYOMING

CITY           SKY/WX    TMP DP  RH WIND       PRES   REMARKS
LAS VEGAS, NV  PTSUNNY   53  36  52 S20G28    29.76F
ELY            CLOUDY    30  26  85 N7        29.70S WCI  23
ELKO           MOSUNNY   41  21  44 CALM      29.71F
POCATELLO, ID  PTSUNNY   36  18  48 CALM      29.76S
BURLEY         MOSUNNY   41  17  38 E10       29.73F
EVANSTON, WY   LGT SNOW  27  24  89 E9        29.72F VSB 1   WCI  18
ROCK SPRINGS   LGT SNOW  30  28  92 NE8       29.72F FOG     WCI  22
KEMMERER       LGT SNOW  30  27  86 NE6       29.74S WCI  24

$$


USA.gov is the U.S. government's official web portal to all federal, state and local government web resources and services.